Weather History for Concord, NH

Change the Weather History Date:

Tuesday, June 17, 2014

  Actual Average Record
Temperature  
Mean Temperature 73 °F 66 °F  
Max Temperature 87 °F 78 °F 97 °F (1994)
Min Temperature 58 °F 53 °F 35 °F (1901)
Degree Days  
Heating Degree Days 0 2  
Month to date heating degree days 37 65  
Since 1 June heating degree days 37 65  
Since 1 July heating degree days 7605 7215  
Cooling Degree Days 8 3  
Month to date cooling degree days 24 35  
Year to date cooling degree days 26 53  
Since 1 June cooling degree days 24 35  
Growing Degree Days 22 (Base 50)    
Moisture  
Dew Point 60 °F    
Average Humidity 70    
Maximum Humidity 93    
Minimum Humidity 47    
Precipitation  
Precipitation T in 0.11 in 2.44 in (1906)
Month to date precipitation 1.06 2.22  
Year to date precipitation 18.80 17.88  
Snow  
Snow 0.00 in 0.00 in 0.00 in (2002)
Month to date snowfall 0.0 0.0  
Since 1 June snowfall 0.0 0.0  
Since 1 July snowfall 80.4 61.4  
Snow Depth 0.00 in    
Sea Level Pressure  
Sea Level Pressure 29.96 in    
Wind  
Wind Speed 4 mph (South)    
Max Wind Speed 12 mph    
Max Gust Speed 14 mph    
Visibility 10 miles    
Events      
T = Trace of Precipitation, MM = Missing Value Source: NWS Daily Summary

Daily Weather History Graph

Daily Weather History Graph

Search for Another Location

Airport:

Trip Planner

Search our weather history database for the weather conditions in past years. The results will help you decide how hot, cold, wet, or windy it might be!

Date:

Astronomy

Jun. 17, 2014 Rise Set
Actual Time 5:05 AM EDT 8:28 PM EDT
Civil Twilight 4:30 AM EDT 9:03 PM EDT
Nautical Twilight 3:43 AM EDT 9:50 PM EDT
Astronomical Twilight 2:46 AM EDT 10:48 PM EDT
Moon 11:47 PM EDT (6/17) 10:23 AM EDT (6/17)
Length of Visible Light 16h 33m
Length of Day
15h 22m
Waning Gibbous, 73% of the Moon is Illuminated
Jun 17
Waning Gibbous
Jun 19
Last Quarter
Jun 27
New
Jul 5
First Quarter
Jul 12
Full

Hourly Weather History & Observations

Time (EDT) Temp. Heat Index Dew Point Humidity Pressure Visibility Wind Dir Wind Speed Gust Speed Precip Events Conditions
12:51 AM 64.0 °F - 55.9 °F 75% 30.04 in 10.0 mi Calm Calm - N/A   Overcast
1:51 AM 61.0 °F - 55.0 °F 81% 30.03 in 10.0 mi Calm Calm - N/A   Mostly Cloudy
2:51 AM 61.0 °F - 55.0 °F 81% 30.02 in 10.0 mi Calm Calm - N/A   Mostly Cloudy
3:51 AM 62.1 °F - 55.9 °F 80% 30.02 in 10.0 mi Calm Calm - N/A   Overcast
4:51 AM 61.0 °F - 57.0 °F 87% 30.01 in 10.0 mi Calm Calm - 0.00 in   Mostly Cloudy
5:51 AM 59.0 °F - 57.0 °F 93% 30.01 in 10.0 mi Calm Calm - N/A   Clear
6:51 AM 63.0 °F - 57.9 °F 84% 30.04 in 10.0 mi Calm Calm - N/A   Clear
7:51 AM 66.0 °F - 59.0 °F 78% 30.05 in 10.0 mi Calm Calm - N/A   Scattered Clouds
8:51 AM 70.0 °F - 57.9 °F 65% 30.05 in 10.0 mi West 4.6 mph - N/A   Scattered Clouds
9:51 AM 73.0 °F - 60.1 °F 64% 30.04 in 10.0 mi WSW 3.5 mph - N/A   Clear
10:51 AM 77.0 °F - 59.0 °F 54% 30.02 in 10.0 mi Calm Calm - N/A   Clear
11:51 AM 80.1 °F 81.1 °F 61.0 °F 52% 30.00 in 10.0 mi Variable 4.6 mph - N/A   Clear
12:51 PM 82.9 °F 83.7 °F 62.1 °F 49% 29.99 in 10.0 mi NE 4.6 mph - N/A   Clear
1:51 PM 82.9 °F 83.7 °F 62.1 °F 49% 29.97 in 10.0 mi Variable 6.9 mph - N/A   Mostly Cloudy
2:51 PM 84.9 °F 85.9 °F 63.0 °F 48% 29.95 in 10.0 mi South 5.8 mph - N/A   Mostly Cloudy
3:51 PM 84.9 °F 86.1 °F 64.0 °F 49% 29.93 in 10.0 mi South 9.2 mph - N/A   Clear
4:51 PM 84.9 °F 86.1 °F 64.0 °F 49% 29.91 in 10.0 mi South 5.8 mph - N/A   Partly Cloudy
5:51 PM 82.9 °F 84.6 °F 64.9 °F 54% 29.90 in 10.0 mi ESE 4.6 mph - N/A   Mostly Cloudy
6:51 PM 82.9 °F 83.2 °F 60.1 °F 46% 29.89 in 10.0 mi West 6.9 mph - N/A   Partly Cloudy
7:51 PM 79.0 °F - 61.0 °F 54% 29.86 in 10.0 mi SSE 4.6 mph - N/A   Clear
8:51 PM 73.0 °F - 62.1 °F 68% 29.86 in 10.0 mi SSW 3.5 mph - N/A   Clear
9:51 PM 69.8 °F - 62.6 °F 78% 29.86 in 10.0 mi Calm Calm - N/A   Partly Cloudy
10:51 PM 72.0 °F - 61.0 °F 68% 29.84 in 10.0 mi SSE 5.8 mph - N/A   Mostly Cloudy
11:51 PM 72.0 °F - 63.0 °F 73% 29.82 in 10.0 mi South 5.8 mph - N/A   Mostly Cloudy